Location: Warwick
(41.7000°N, 71.4170°W)
Time: 13:11:21
(UTC-04:00)

BREEZE-M DEB (TANK) - Visible Passes

Search period start: 23 October 2014 00:00
Search period end: 02 November 2014 00:00
Orbit: 281 x 16045 km, 49.5° (Epoch: 21 October)

Date Brightness Start Highest point End Pass type
(mag) Time Alt. Az. Time Alt. Az. Time Alt. Az.
23 Oct 8.7 00:19:21 10° NW 02:09:00 34° W 02:26:34 33° W visible
23 Oct 8.3 18:43:11 10° W 20:50:20 83° NNE 21:50:04 53° ESE visible
24 Oct 8.8 00:39:37 10° NW 02:19:58 30° WNW 02:40:57 28° W visible
24 Oct 8.3 18:59:36 10° W 21:13:45 86° NE 22:04:29 57° SE visible
25 Oct 8.8 01:00:32 10° NW 02:30:30 26° WNW 02:55:23 23° W visible
25 Oct 8.3 19:16:08 10° W 21:35:05 90° NE 22:18:57 59° SE visible
26 Oct 8.9 01:22:25 10° NW 02:40:41 22° WNW 03:09:53 19° W visible
26 Oct 8.3 19:32:47 10° WNW 21:54:45 86° SW 22:33:29 61° SSE visible
27 Oct 8.9 01:45:53 10° NW 02:50:32 18° WNW 03:24:25 14° W visible
27 Oct 8.3 19:49:33 10° WNW 22:13:04 82° WSW 22:48:04 62° SSE visible
28 Oct 9.0 02:12:25 10° NW 03:00:08 14° WNW 03:38:51 10° W visible
28 Oct 8.8 14:46:26 10° SW 15:21:38 85° SE 18:05:44 10° E visible
28 Oct 8.3 20:06:25 10° WNW 22:30:13 77° WSW 23:02:43 61° S visible
29 Oct 9.1 02:48:38 10° NW 03:09:31 11° WNW 03:28:55 10° WNW visible
29 Oct 8.8 15:01:05 10° SW 15:38:58 89° SE 18:24:10 10° E visible
29 Oct 8.3 20:23:23 10° WNW 22:46:23 73° WSW 23:17:25 60° S visible
30 Oct 8.7 15:15:50 10° SW 15:57:04 87° NW 18:41:18 11° E visible
30 Oct 8.3 20:40:27 10° WNW 23:01:37 68° WSW 23:32:11 57° SSW visible
31 Oct 8.7 15:30:39 10° WSW 16:16:05 84° NNW 18:56:07 14° E visible
31 Oct 8.3 20:57:36 10° WNW 23:16:02 63° WSW 23:47:00 53° SSW visible
01 Nov 8.6 15:45:33 10° WSW 16:36:13 82° NNW 19:10:59 16° E visible
01 Nov 8.4 21:14:52 10° WNW 23:29:41 58° W 00:00:00 50° SW visible
